Marathon, FL

12:57 PM EDT on August 18, 2017 (GMT -0400)
Florida Keys Marathon

Weather History for KMTH - November, 2013

Change the Weather History Date:

Saturday, November 30, 2013

  Actual Average Record
Temperature  
Mean Temperature 72 °F 74 °F  
Max Temperature 77 °F 79 °F 98 °F (1997)
Min Temperature 67 °F 69 °F 60 °F (2002)
Degree Days  
Heating Degree Days 0 0  
Month to date heating degree days 1 1  
Since 1 July heating degree days 1 1  
Cooling Degree Days 7 9  
Month to date cooling degree days 395 325  
Year to date cooling degree days 5256 4764  
Growing Degree Days 20 (Base 50)    
Moisture  
Dew Point 65 °F    
Average Humidity 80    
Maximum Humidity 87    
Minimum Humidity 73    
Precipitation  
Precipitation 0.00 in 0.08 in 0.50 in (2008)
Month to date precipitation 6.06 2.82  
Year to date precipitation 49.57 44.15  
Snow  
Snow 0.00 in - - ()
Month to date snowfall 0.0  
Since 1 July snowfall 0.0  
Since 1 September snowfall 0.0  
Snow Depth 0.00 in    
Sea Level Pressure  
Sea Level Pressure 30.13 in    
Wind  
Wind Speed 10 mph (NNE)    
Max Wind Speed 17 mph    
Max Gust Speed 24 mph    
Visibility 10 miles    
Events      
T = Trace of Precipitation, MM = Missing Value Source: NWS Daily Summary

Daily Weather History Graph

Daily Weather History Graph

Search for Another Location

Airport or City:

Trip Planner

Search our weather history database for the weather conditions in past years. The results will help you decide how hot, cold, wet, or windy it might be!

Date:

Astronomy

Nov. 30, 2013 Rise Set
Actual Time 6:51 AM EST 5:34 PM EST
Civil Twilight 6:26 AM EST 5:59 PM EST
Nautical Twilight 5:58 AM EST 6:27 PM EST
Astronomical Twilight 5:30 AM EST 6:55 PM EST
Moon 4:14 AM EST (11/30) 3:46 PM EST (11/30)
Length of Visible Light 11h 32m
Length of Day
10h 43m
Waning Crescent, 7% of the Moon is Illuminated
Nov 30
Waning Crescent
Dec 2
New
Dec 9
First Quarter
Dec 17
Full
Dec 25
Last Quarter

Hourly Weather History & Observations

Time (EST) Temp. Dew Point Humidity Pressure Visibility Wind Dir Wind Speed Gust Speed Precip Events Conditions
12:53 AM 70.0 °F 62.1 °F 76% 30.17 in 10.0 mi North 10.4 mph - N/A   Clear
1:53 AM 70.0 °F 62.1 °F 76% 30.16 in 10.0 mi North 10.4 mph - N/A   Mostly Cloudy
2:53 AM 69.1 °F 63.0 °F 81% 30.14 in 10.0 mi NNE 11.5 mph - N/A   Mostly Cloudy
3:53 AM 68.0 °F 63.0 °F 84% 30.14 in 10.0 mi NNE 11.5 mph - N/A   Overcast
4:53 AM 66.9 °F 63.0 °F 87% 30.14 in 10.0 mi North 12.7 mph - N/A   Clear
5:53 AM 66.9 °F 63.0 °F 87% 30.14 in 10.0 mi NNE 12.7 mph 20.7 mph N/A   Clear
6:53 AM 66.9 °F 63.0 °F 87% 30.15 in 10.0 mi NNE 12.7 mph - N/A   Clear
7:53 AM 68.0 °F 63.0 °F 84% 30.16 in 10.0 mi NNE 9.2 mph - N/A   Clear
8:53 AM 70.0 °F 64.0 °F 81% 30.18 in 10.0 mi NNE 10.4 mph - N/A   Clear
9:53 AM 71.1 °F 64.0 °F 78% 30.19 in 10.0 mi North 11.5 mph - N/A   Clear
10:53 AM 73.0 °F 64.9 °F 76% 30.18 in 10.0 mi NNE 9.2 mph - N/A   Clear
11:53 AM 75.0 °F 66.0 °F 73% 30.15 in 10.0 mi North 9.2 mph - N/A   Clear
12:53 PM 75.9 °F 66.9 °F 74% 30.13 in 10.0 mi North 8.1 mph - N/A   Clear
1:53 PM 75.9 °F 68.0 °F 76% 30.10 in 10.0 mi North 9.2 mph - N/A   Clear
2:53 PM 75.9 °F 68.0 °F 76% 30.10 in 10.0 mi North 8.1 mph - N/A   Clear
3:53 PM 75.9 °F 68.0 °F 76% 30.09 in 10.0 mi North 6.9 mph - N/A   Clear
4:53 PM 75.0 °F 69.1 °F 82% 30.09 in 10.0 mi NNE 6.9 mph - N/A   Mostly Cloudy
5:53 PM 73.0 °F 68.0 °F 84% 30.09 in 10.0 mi NNE 9.2 mph - N/A   Mostly Cloudy
6:53 PM 71.1 °F 66.9 °F 87% 30.10 in 10.0 mi NE 13.8 mph - N/A   Mostly Cloudy
7:53 PM 72.0 °F 66.9 °F 84% 30.11 in 10.0 mi NNE 12.7 mph - N/A   Mostly Cloudy
8:53 PM 71.1 °F 66.9 °F 87% 30.12 in 10.0 mi NNE 13.8 mph 24.2 mph N/A   Partly Cloudy
9:53 PM 72.0 °F 66.0 °F 81% 30.11 in 10.0 mi NNE 10.4 mph - N/A   Partly Cloudy
10:53 PM 72.0 °F 66.0 °F 81% 30.11 in 10.0 mi NNE 8.1 mph - N/A   Clear
11:53 PM 71.1 °F 66.9 °F 87% 30.09 in 10.0 mi NNE 11.5 mph - N/A   Clear